Wind_Speed
42 44 45 45 45 41 43 46 47 49 49 48 45 44 44 44 42 41 41 44 45 47 47 48 48 47 46 46 46 48 47 46 45 45 42 40 42 46 47 48 52 50 52
39 40 41 41 42 45 44 43 44 45 46 47 47 46 46 46 45 45 45 45 45 46 47 48 47 46 47 47 46 46 44 45 43 43 43 43 43 45 48 50 51 53 55
39 38 38 37 39 42 43 44 44 44 46 46 47 48 48 48 47 46 46 45 44 45 45 43 45 46 48 50 48 46 45 43 43 44 45 45 44 45 47 50 53 55 56
37 38 38 39 39 40 41 43 44 44 45 45 44 43 44 45 45 45 44 42 41 42 43 44 45 49 46 42 41 41 42 43 44 43 41 37 35 34 35 36 36 37 38
37 38 37 37 38 39 40 41 40 40 40 40 39 38 38 37 39 40 43 42 42 43 40 42 41 40 37 37 37 37 37 35 33 31 28 28 26 27 29 31 32 31 31
35 35 35 37 39 39 39 39 38 38 36 35 37 38 39 41 40 37 33 34 35 37 35 30 31 34 37 37 34 30 28 27 28 29 30 29 29 27 25 26 27 28 29
34 34 36 37 39 39 39 38 37 36 35 43 35 31 35 37 35 33 33 30 25 21 23 24 26 24 22 25 27 28 29 29 28 28 28 26 23 23 25 25 27 28 28
35 38 40 41 42 41 39 36 33 36 32 28 31 30 32 36 31 26 22 21 19 20 22 21 21 23 23 23 20 20 24 26 27 25 23 22 25 25 27 27 27 30 32
37 40 42 44 45 42 35 32 34 31 28 29 24 23 21 15 15 18 19 16 17 15 16 17 18 17 18 19 21 23 24 25 22 23 23 24 26 28 29 31 33 33 33
40 43 46 42 38 35 31 30 31 29 25 27 23 22 21 19 14 13 14 15 15 15 17 15 16 16 18 18 21 21 23 23 22 23 25 27 29 30 32 33 31 30 30
42 43 41 36 34 33 25 25 26 26 29 26 20 20 14 10 11 12 13 15 16 13 12 14 15 17 18 19 21 22 22 23 24 24 25 27 29 30 30 29 29 27 31
41 38 35 34 33 29 26 29 33 28 23 19 16 9 6 8 11 13 16 15 12 12 14 14 13 15 17 18 20 22 22 24 25 25 25 26 27 27 26 26 27 28 30
35 33 32 30 26 25 23 22 21 21 16 8 2 4 5 9 12 13 12 13 12 10 10 11 12 14 16 18 20 22 24 24 25 25 25 26 27 25 23 23 25 27 29
30 28 27 27 26 25 21 16 13 8 3 2 3 5 7 10 13 9 11 11 10 11 12 13 13 14 15 16 19 20 22 23 24 25 25 25 27 26 22 19 22 24 28
28 25 25 25 25 20 14 11 7 4 5 6 7 7 9 12 9 7 6 7 8 10 11 11 12 14 16 18 20 22 24 24 25 25 26 26 27 28 25 20 21 23 27
26 25 22 21 20 14 12 9 8 8 8 7 8 11 9 4 3 4 6 8 9 10 11 12 13 15 16 19 21 23 25 26 26 26 26 26 26 27 26 22 20 21 25
24 24 20 16 19 17 12 10 9 8 9 11 8 3 4 5 5 6 6 8 9 9 10 11 13 15 16 19 21 23 24 26 26 25 25 25 26 26 27 23 20 20 24
23 18 14 13 13 14 11 9 9 8 8 8 8 6 5 5 5 6 7 8 9 11 13 13 13 15 16 19 21 24 25 25 26 25 24 24 25 25 26 27 22 20 22
20 14 12 12 10 9 9 10 9 9 8 8 7 6 5 5 5 6 6 7 10 11 13 13 14 14 16 19 21 23 24 25 25 25 25 24 25 25 25 25 24 22 20
15 10 9 8 8 8 8 7 7 7 6 6 6 5 5 6 6 7 7 7 8 10 12 15 16 16 18 20 22 23 24 24 25 26 25 24 23 23 24 25 26 25 24
13 10 7 6 6 6 8 9 8 7 6 6 5 3 4 5 6 8 9 10 10 9 10 11 15 17 18 19 21 23 23 23 24 24 25 24 24 23 23 24 25 25 25
13 10 9 8 7 8 9 9 10 8 7 6 5 4 6 6 8 11 13 14 14 13 11 10 12 15 17 19 21 22 23 23 23 24 24 24 23 22 23 24 25 25 26
13 13 11 9 9 10 11 11 11 11 9 7 7 6 7 9 11 14 16 16 15 14 13 12 11 12 14 17 19 21 22 23 23 23 23 23 23 23 22 22 22 23 24
14 14 12 11 11 12 12 12 13 13 12 10 9 10 11 12 14 17 17 16 15 15 15 13 12 11 13 16 18 20 21 22 22 23 23 23 23 22 22 22 22 23 24
14 14 14 13 13 13 12 12 14 15 14 14 13 12 13 14 16 16 15 14 16 17 15 13 13 12 13 15 18 20 21 22 23 23 23 22 22 22 21 21 21 22 23
17 16 16 16 16 15 15 14 14 15 16 15 15 14 14 16 16 17 17 17 15 15 15 14 13 13 14 15 18 19 21 22 23 23 24 23 23 22 21 21 22 22 22
Wind_Direction
283 283 285 286 288 288 292 291 291 290 290 292 291 289 290 291 290 287 285 286 288 291 291 290 290 290 291 290 288 290 291 293 292 294 294 287 282 275 275 275 277 276 272
293 295 296 295 291 290 292 292 291 293 292 291 290 289 289 288 288 287 287 287 286 286 287 288 288 290 292 295 296 294 294 293 291 291 288 283 281 277 276 276 277 276 275
294 297 297 294 294 295 295 295 293 292 292 291 290 288 287 288 288 287 286 287 288 286 288 289 288 290 291 292 293 293 292 294 293 291 290 290 288 284 281 280 281 280 280
298 297 298 298 298 297 296 295 295 294 293 291 292 292 291 290 290 289 289 288 286 287 287 287 287 288 290 295 296 297 297 299 299 298 297 298 296 294 293 292 291 290 289
300 301 301 300 300 300 299 298 296 296 297 296 296 294 292 292 290 290 292 289 286 288 288 288 288 293 300 303 306 309 306 304 305 303 303 302 300 297 294 292 291 293 295
301 302 305 306 306 304 300 298 299 301 298 296 302 296 294 296 292 294 291 291 291 288 289 294 298 301 301 301 302 302 302 306 306 305 303 303 301 302 302 300 303 305 305
304 307 308 308 306 302 300 299 298 299 297 291 297 292 287 296 294 294 295 294 295 301 309 307 302 299 301 305 310 310 311 308 306 303 301 301 302 304 310 309 309 306 307
309 312 313 311 309 305 302 298 297 279 286 296 299 300 296 294 295 302 307 307 312 311 307 303 302 307 309 309 307 309 311 313 311 311 310 306 308 307 306 305 309 313 313
314 315 314 312 310 308 308 301 280 280 297 303 307 308 307 315 316 309 306 306 308 308 313 316 317 317 318 319 317 321 324 323 320 317 311 307 307 306 307 310 313 311 312
319 316 317 319 317 311 305 291 282 290 299 310 302 303 308 311 310 307 308 310 306 313 318 316 317 327 331 332 332 332 333 335 325 320 317 313 309 307 308 310 312 312 315
320 324 322 322 319 317 308 290 314 314 305 296 297 304 314 308 315 320 321 320 315 307 305 316 325 329 338 340 336 338 337 335 337 338 332 325 319 314 314 317 321 320 325
327 325 322 321 320 315 309 300 304 304 303 299 303 302 294 315 322 323 324 324 323 325 330 327 332 342 344 341 341 342 340 343 340 338 336 334 331 322 316 315 322 327 332
328 326 324 324 325 323 318 310 305 303 298 292 266 268 308 318 327 322 325 338 355 0 351 354 351 351 353 349 347 350 349 346 343 341 340 339 340 333 320 316 323 330 337
329 326 328 329 326 321 317 317 322 323 324 338 304 290 301 310 319 318 327 339 358 7 8 6 2 357 353 350 352 351 350 348 346 345 345 344 344 344 332 319 324 332 340
334 333 330 331 331 335 329 327 333 342 329 322 310 301 304 311 320 326 346 14 17 12 5 0 358 357 356 355 354 354 353 352 351 349 349 350 348 348 345 329 329 335 340
333 330 331 335 339 344 352 347 333 325 319 312 313 312 315 326 354 23 23 16 13 8 0 0 357 356 353 353 353 353 354 354 355 353 352 352 352 351 350 340 336 340 343
333 331 332 343 349 349 345 342 338 326 322 316 326 23 63 73 50 26 15 9 8 5 0 2 357 354 353 353 351 351 354 353 356 357 355 354 355 354 353 349 340 342 347
333 334 340 348 6 17 11 0 358 15 38 54 63 62 47 34 24 17 18 22 23 20 15 6 0 359 356 353 352 353 354 354 356 358 357 356 359 358 355 357 352 349 351
333 330 338 342 354 16 37 44 41 37 38 36 26 24 22 28 34 38 33 30 25 24 18 12 7 3 2 358 355 353 353 356 357 358 359 0 0 2 0 357 2 359 353
330 335 353 355 10 13 16 20 23 17 8 1 1 1 26 35 23 13 10 4 0 0 8 11 9 5 3 358 355 354 356 357 359 0 1 2 3 2 4 3 6 8 5
324 321 333 335 340 350 0 0 352 354 353 349 351 355 1 1 1 3 356 349 342 338 349 0 8 10 5 1 358 355 357 359 0 1 1 4 5 3 3 5 8 10 10
313 305 309 310 319 338 338 343 341 335 331 328 325 331 335 345 347 348 346 342 338 334 332 335 350 359 2 1 0 357 357 359 0 0 0 2 3 5 4 4 8 10 10
309 302 296 295 307 316 324 329 329 327 323 312 305 304 308 317 326 332 330 327 325 328 327 324 328 345 354 359 359 358 356 356 358 359 359 359 0 2 2 4 6 5 6
307 298 292 280 290 309 320 329 330 324 320 310 302 303 304 309 319 325 327 325 321 324 325 318 319 327 342 350 354 354 355 353 354 356 356 356 356 358 356 359 2 3 5
298 291 284 275 281 297 307 320 330 338 326 316 306 303 308 314 317 320 324 326 322 321 320 316 316 319 330 340 347 349 350 350 350 351 353 353 353 354 353 350 353 357 359
297 285 272 269 272 285 292 302 316 327 331 325 315 309 307 307 311 314 314 314 316 317 317 316 315 317 325 334 340 345 348 348 348 348 348 349 349 351 347 345 345 348 351
Height
5850 5847 5844 5840 5835 5831 5828 5823 5819 5815 5811 5807 5803 5799 5796 5792 5789 5786 5783 5779 5776 5773 5769 5765 5762 5760 5757 5754 5750 5747 5744 5741 5738 5736 5735 5734 5732 5731 5729 5729 5728 5726 5723
5840 5836 5832 5829 5825 5821 5817 5812 5809 5805 5800 5796 5792 5789 5785 5782 5778 5775 5772 5769 5766 5763 5759 5755 5751 5748 5745 5742 5738 5736 5733 5730 5728 5725 5723 5721 5720 5718 5716 5715 5712 5710 5708
5831 5828 5824 5819 5815 5811 5806 5802 5798 5794 5789 5785 5781 5778 5774 5771 5767 5764 5761 5759 5755 5751 5748 5745 5741 5738 5735 5731 5727 5724 5722 5719 5715 5713 5710 5708 5707 5703 5702 5699 5696 5694 5691
5822 5818 5814 5810 5805 5800 5796 5792 5788 5783 5779 5775 5770 5766 5763 5760 5757 5754 5750 5748 5745 5741 5738 5735 5732 5728 5725 5721 5718 5715 5711 5709 5706 5702 5699 5698 5694 5691 5689 5686 5684 5682 5679
5813 5809 5805 5801 5796 5792 5787 5782 5777 5773 5768 5764 5760 5756 5752 5749 5746 5743 5740 5737 5735 5733 5729 5725 5722 5719 5716 5712 5709 5706 5703 5699 5696 5694 5690 5688 5686 5683 5681 5678 5675 5672 5668
5806 5800 5796 5791 5787 5782 5777 5772 5767 5763 5758 5755 5752 5748 5744 5740 5736 5733 5730 5727 5724 5722 5720 5717 5714 5712 5709 5706 5703 5699 5696 5693 5690 5687 5685 5681 5678 5675 5672 5670 5667 5663 5661
5797 5793 5788 5783 5777 5772 5766 5762 5758 5753 5750 5746 5743 5739 5736 5732 5729 5725 5721 5719 5717 5715 5713 5711 5709 5707 5704 5701 5697 5694 5689 5688 5685 5682 5678 5675 5672 5669 5667 5663 5659 5655 5652
5789 5784 5778 5773 5768 5762 5757 5752 5747 5744 5741 5739 5736 5732 5728 5725 5721 5718 5715 5714 5713 5711 5709 5707 5704 5701 5699 5697 5694 5692 5688 5683 5679 5675 5672 5669 5666 5663 5660 5657 5653 5648 5642
5782 5776 5770 5764 5757 5751 5747 5743 5740 5736 5734 5732 5728 5725 5722 5719 5717 5715 5713 5712 5709 5708 5706 5703 5701 5698 5696 5693 5690 5687 5683 5678 5674 5671 5668 5664 5661 5657 5653 5649 5645 5640 5634
5774 5768 5760 5752 5747 5742 5739 5735 5731 5729 5728 5726 5723 5720 5717 5716 5714 5712 5711 5709 5708 5705 5702 5701 5698 5695 5692 5689 5686 5682 5678 5674 5670 5667 5663 5658 5654 5650 5646 5642 5638 5632 5627
5766 5758 5751 5746 5741 5736 5732 5726 5722 5722 5721 5719 5718 5716 5714 5713 5712 5710 5708 5706 5704 5702 5701 5698 5695 5693 5689 5686 5682 5679 5675 5670 5666 5662 5657 5652 5647 5642 5638 5634 5630 5626 5620
5758 5752 5745 5741 5737 5731 5727 5723 5720 5717 5716 5714 5714 5713 5712 5712 5711 5709 5707 5704 5702 5699 5697 5695 5693 5689 5686 5683 5680 5676 5672 5667 5662 5658 5653 5647 5642 5637 5632 5628 5624 5620 5614
5753 5746 5741 5736 5731 5727 5723 5720 5717 5714 5712 5711 5711 5711 5712 5711 5709 5708 5706 5703 5700 5698 5695 5693 5690 5688 5685 5682 5678 5674 5669 5665 5660 5655 5650 5644 5639 5633 5628 5624 5620 5615 5610
5749 5744 5737 5732 5728 5723 5719 5716 5714 5712 5711 5711 5711 5711 5711 5710 5709 5706 5704 5702 5700 5697 5694 5692 5690 5687 5685 5681 5677 5673 5668 5663 5658 5653 5647 5642 5636 5630 5625 5621 5617 5612 5607
5744 5739 5735 5730 5725 5720 5717 5715 5714 5713 5712 5712 5711 5711 5710 5708 5706 5705 5704 5702 5700 5697 5695 5693 5690 5687 5684 5680 5676 5672 5667 5662 5656 5651 5645 5639 5633 5627 5622 5618 5614 5609 5604
5741 5736 5732 5728 5724 5720 5717 5715 5714 5713 5712 5711 5710 5709 5708 5706 5706 5705 5703 5701 5699 5697 5696 5693 5690 5687 5683 5679 5675 5671 5666 5660 5655 5649 5643 5638 5632 5626 5620 5615 5611 5607 5602
5738 5734 5730 5727 5723 5719 5717 5715 5714 5713 5711 5710 5708 5707 5707 5707 5706 5705 5703 5701 5700 5698 5695 5692 5690 5686 5682 5678 5674 5670 5664 5659 5653 5648 5642 5637 5631 5625 5619 5614 5609 5605 5600
5736 5733 5730 5727 5724 5720 5717 5715 5713 5712 5711 5710 5710 5709 5708 5708 5706 5705 5703 5702 5700 5698 5695 5692 5689 5686 5682 5678 5673 5668 5663 5658 5652 5647 5641 5636 5630 5625 5619 5613 5608 5603 5599
5735 5732 5730 5727 5725 5723 5720 5718 5717 5715 5714 5713 5712 5711 5709 5708 5707 5705 5703 5702 5700 5698 5695 5692 5689 5685 5681 5677 5672 5667 5662 5657 5652 5646 5641 5635 5630 5625 5619 5614 5608 5603 5598
5734 5732 5729 5728 5726 5725 5723 5721 5719 5717 5715 5714 5713 5711 5710 5708 5707 5705 5703 5701 5700 5697 5695 5692 5688 5685 5680 5676 5671 5666 5661 5656 5651 5646 5640 5635 5630 5625 5620 5614 5608 5603 5598
5733 5731 5730 5729 5727 5726 5723 5721 5719 5717 5715 5714 5713 5712 5710 5709 5707 5705 5703 5701 5698 5696 5693 5691 5687 5683 5680 5676 5671 5666 5661 5656 5651 5645 5640 5635 5630 5625 5620 5615 5609 5604 5599
5732 5730 5728 5728 5726 5725 5723 5721 5719 5717 5715 5713 5712 5711 5710 5708 5707 5705 5702 5700 5697 5694 5691 5688 5685 5682 5679 5674 5670 5665 5661 5655 5650 5645 5640 5635 5630 5626 5621 5616 5611 5605 5601
5730 5728 5727 5726 5725 5724 5722 5720 5718 5716 5714 5712 5711 5710 5708 5707 5705 5702 5700 5697 5694 5691 5689 5686 5683 5680 5677 5673 5669 5664 5659 5654 5650 5645 5640 5635 5630 5626 5621 5617 5611 5606 5602
5726 5725 5724 5724 5723 5722 5720 5718 5716 5714 5712 5710 5709 5707 5706 5704 5702 5699 5697 5694 5691 5689 5686 5683 5681 5678 5675 5671 5667 5662 5658 5653 5649 5644 5639 5635 5630 5625 5621 5617 5612 5607 5603
5722 5721 5721 5721 5720 5720 5718 5717 5714 5712 5710 5708 5706 5704 5703 5701 5699 5696 5693 5691 5689 5686 5683 5680 5678 5676 5673 5669 5665 5661 5656 5652 5647 5643 5638 5634 5629 5625 5620 5617 5612 5608 5603
5718 5717 5716 5716 5716 5716 5715 5714 5712 5710 5708 5705 5703 5701 5699 5697 5695 5693 5690 5688 5685 5683 5680 5678 5675 5673 5670 5667 5663 5659 5654 5650 5645 5641 5636 5632 5628 5623 5619 5615 5611 5607 5603